User: anonymous   Login
Location: *
(37.5724°S, 58.0067°E)
Time: 03:37:25
(UTC+00:00)
Language:

CSL-04 Debris - Orbit

View from above orbital plane
View from above orbital plane
View from above satellite
View from above satellite

Ground track
Ground track

The orbit data is extracted from the following two-line orbital elements,

1 25733U 99025D   20339.61461927  .00000156  00000-0  10113-3 0  9999
2 25733  98.9329   8.5940 0014794 195.5030 164.5693 14.16408828113850
Epoch (UTC): 04 December 2020 14:45:03
Eccentricity: 0.0014794
inclination: 98.9329°
perigee height: 827 km
apogee height: 848 km
right ascension of ascending node: 8.5940°
argument of perigee: 195.5030°
revolutions per day: 14.16408828
mean anomaly at epoch: 164.5693°
orbit number at epoch: 11385

The dashed part of the orbit path shows where the satellite is in the earth's shadow,  

DLR